Главная страница
METAR-TAF:

METAR-TAF

Аэропорты :

Дамаск, Сирия

широта: 33-25N, долгота: 036-31E, высота над уровнем моря: 608 м

Текущие метеонаблюдения

Эта сводка был подготовлена 54 минут назад, в 05:00 UTC
Ветер 11 Узел от южный-юго-западный
Температура 20°C
Влажность 73%
Давление 1012 hPa
Видимость 10 км и более
Нет облачности ниже 1500 м, и нет кучево-дождевой облачности

METAR: OSDI 250500Z 21011KT CAVOK 20/15 Q1012

Время: 08:54 (05:54 UTC)

Прогноз

Эта сводка был подготовлена 54 минут назад, в 05:00 UTC
Прогноз действительный с 25-го 06 UTC до 26-го 12 UTC
Ветер 3 Узел переменных направлений
Видимость 10 км и более
Нет облачности ниже 1500 м, и нет кучево-дождевой облачности
временами
С 25-го 12 UTC до 25-го 18 UTC
Ветер 18 Узел от юго-западный
Видимость 10 км и более
небольшая облачность на высоте 3000 фута

TAF: OSDI 250500Z 2506/2612 VRB03KT CAVOK TEMPO 2512/2518 22018KT 9999 FEW030

Метеонаблюдения и прогнозы для более 4000 аэропортов (сводки METAR и TAF).

Имеющиеся станции представлены на карте желтыми и красными точками.

Чтобы увидеть название станции, наведите на нее мышь.

Затем щелкните, чтобы увидеть метеонаблюдения и метеопрогнозы.

Управление картой: чтобы увеличить масштаб, щелкните зеленые кнопки с черным крестиком; чтобы уменьшить масштаб, щелкните зеленую кнопку с тире; для просмотра соседних карт щелкайте зеленые стрелки.


METAR-TAF: